Location: Alafon
(8.4500°N, 4.2333°E)
Time: 17:53:20
(UTC+00:00)

SR - Pass Details

Date: 09 August 2021
Orbit: 581 x 874 km, 66.7° (Epoch: 18 September)

Event Time Altitude Azimuth Distance (km) Brightness Sun altitude
Rises 14:24:49 0° 325° (NW) 2,837 ? 51.2°
Reaches altitude 10° 14:27:14 10° 316° (NW) 1,912 ? 50.6°
Maximum altitude 14:31:04 33° 251° (WSW) 983 ? 49.7°
Drops below altitude 10° 14:34:52 10° 186° (S) 1,890 ? 48.8°
Sets 14:37:15 0° 177° (S) 2,800 ? 48.2°
